Content
SEND FEEDBACK

Daily
Averages
Monthly
Summary
United States of America

HAZELWOOD, MISSOURI


Home > North America > United States > Missouri
Elevation: 174 meters     Latitude: 38 45N     Longitude: 090 22W

WEATHER
 
SELECT A DAY
Number of Records: 196,268;   Date Range: 1/1/95 - 7/20/14
 
SHARE

PRINT THIS DATA

[ ← Previous Day ]
WEATHER ALMANAC - 8 MARCH, 2013
[ Next Day → ]
[ °F ]   °C
Weather ElementAverageHighLow
Temperature5.7 °C11.7 °C (2:54 pm)-3.9 °C (4:54 am)
Dewpoint-2.4 °C-1.1 °C (10:54 am)-5.6 °C (4:54 am)
Humidity59.2 %88 % (2:54 am)38 % (3:54 pm)
Barometer1027.1 hPa1030.5 hPa (7:54 am)1022.7 hPa (11:54 pm)
Wind Speed11.6 km/h20.4 km/h (1:54 pm)
Wind Gust29.6 km/h (11:54 am)
Weather ElementAverage
Visibility15.4 km
Wind DirectionESE (104.3 °)

Weather ElementTotal
Precipitation---
Heating Degree Days14.4 (Base 18.3)
Averaged from 23 records on 8 March, 2013
WEATHER CONDITIONS BREAKOUT
WIND DIRECTION BREAKOUT
WEATHER BY HOUR - 8 MARCH, 2013
[ °F ]   °C
Local TimeTemperatureDewpointHumidityBarometerVisibilityWind DirectionWind SpeedGust SpeedPrecipitationEventsConditions
1:54 AM0 °C-3.3 °C79 %1029.5 hPa16.1 kmEast (100°)7.4 km/hClear
2:54 AM-2.2 °C-3.9 °C88 %1029.1 hPa16.1 kmEast (80°)7.4 km/hClear
3:54 AM-2.8 °C-5 °C85 %1029.5 hPa12.9 kmCalmClear
4:54 AM-3.9 °C-5.6 °C88 %1029.1 hPa12.9 kmEast (80°)9.3 km/hClear
5:54 AM-2.2 °C-3.9 °C88 %1029.5 hPa12.9 kmEast (100°)7.4 km/hClear
6:54 AM-1.1 °C-3.3 °C85 %1029.5 hPa12.9 kmESE (110°)7.4 km/hClear
7:54 AM1.1 °C-2.8 °C75 %1030.5 hPa14.5 kmESE (120°)5.6 km/hClear
8:54 AM2.8 °C-2.8 °C67 %1030.5 hPa16.1 kmSE (130°)16.7 km/hPartly Cloudy
9:54 AM5 °C-2.2 °C60 %1030.5 hPa16.1 kmSE (130°)13 km/hScattered Clouds
10:54 AM7.2 °C-1.1 °C56 %1029.5 hPa16.1 kmVariable11.1 km/hClear
11:54 AM8.3 °C-1.1 °C52 %1028.4 hPa16.1 kmESE (110°)18.5 km/h29.6 km/hScattered Clouds
12:54 PM9.4 °C-1.7 °C46 %1027.4 hPa16.1 kmSSE (150°)11.1 km/hScattered Clouds
1:54 PM11.1 °C-1.1 °C43 %1026.4 hPa16.1 kmEast (90°)20.4 km/hScattered Clouds
2:54 PM11.7 °C-1.7 °C40 %1026.4 hPa16.1 kmSSE (150°)16.7 km/h29.6 km/hScattered Clouds
3:54 PM11.1 °C-2.8 °C38 %1025.7 hPa16.1 kmESE (120°)14.8 km/hMostly Cloudy
4:54 PM10.6 °C-2.2 °C41 %1025.4 hPa16.1 kmESE (120°)14.8 km/hOvercast
5:54 PM10.6 °C-2.2 °C41 %1025.1 hPa16.1 kmEast (100°)13 km/hClear
6:54 PM10 °C-1.7 °C44 %1024.7 hPa16.1 kmESE (110°)13 km/hOvercast
7:54 PM10 °C-1.7 °C44 %1024.7 hPa16.1 kmESE (110°)7.4 km/hOvercast
8:54 PM8.9 °C-1.7 °C48 %1024.4 hPa16.1 kmESE (120°)11.1 km/hClear
9:54 PM8.9 °C-1.1 °C50 %1024.4 hPa16.1 kmESE (110°)16.7 km/hPartly Cloudy
10:54 PM8.3 °C-1.1 °C52 %1023.7 hPa16.1 kmSE (130°)11.1 km/h0 mmRainLight Rain
11:54 PM8.3 °C-1.1 °C52 %1022.7 hPa16.1 kmSE (130°)11.1 km/h0 mmOvercast
Hourly data recorded from KSUS, located 0 kilometers away from Hazelwood, Missouri







STORIES FROM OUR PARTNERS